This is the latest recevied weather packets stored in our database for station/object KM4NDN. If no packets are shown the sender has not sent any weather packets the latest 10 day(s).
| Time | Temp. | Humidity | Pressure | Rain* | Wind** | Luminosity | Snow |
|---|---|---|---|---|---|---|---|
| 1777566559 | 10° C | 60% | 1013.6 hPa | 0 mm | - | 440 W/m² | - |
| 1777566256 | 10° C | 62% | 1013.7 hPa | 0 mm | - | 564 W/m² | - |
| 1777565954 | 10° C | 63% | 1013.7 hPa | 0 mm | - | 626 W/m² | - |
| 1777565649 | 9.44° C | 65% | 1013.5 hPa | 0 mm | - | 570 W/m² | - |
| 1777565346 | 9.44° C | 68% | 1013.6 hPa | 0 mm | - | 415 W/m² | - |
| 1777565041 | 9.44° C | 67% | 1013.7 hPa | 0 mm | - | 497 W/m² | - |
| 1777564737 | 10° C | 69% | 1013.7 hPa | 0 mm | - | 569 W/m² | - |
| 1777564432 | 9.44° C | 68% | 1013.5 hPa | 0 mm | - | 701 W/m² | - |
| 1777564129 | 8.89° C | 72% | 1013.5 hPa | 0 mm | - | 865 W/m² | - |
| 1777563824 | 8.33° C | 75% | 1013.7 hPa | 0 mm | - | 517 W/m² | - |
| 1777563521 | 8.33° C | 76% | 1013.6 hPa | 0 mm | - | 338 W/m² | - |
| 1777563220 | 7.78° C | 77% | 1013.7 hPa | 0 mm | - | 206 W/m² | - |
| 1777562917 | 8.33° C | 77% | 1013.6 hPa | 0 mm | - | 121 W/m² | - |
| 1777562613 | 8.33° C | 78% | 1013.5 hPa | 0 mm | - | 140 W/m² | - |
| 1777562312 | 7.78° C | 78% | 1013.6 hPa | 0 mm | - | 244 W/m² | - |
| 1777562009 | 7.78° C | 77% | 1013.5 hPa | 0 mm | - | 205 W/m² | - |
| 1777561706 | 7.78° C | 79% | 1013.2 hPa | 0 mm | - | 294 W/m² | - |
| 1777561401 | 7.22° C | 82% | 1013.6 hPa | 0 mm | - | 251 W/m² | - |
| 1777561097 | 7.22° C | 83% | 1013.6 hPa | 0 mm | - | 100 W/m² | - |
| 1777560792 | 7.22° C | 83% | 1013.4 hPa | 0 mm | - | 104 W/m² | - |
| 1777560490 | 7.22° C | 82% | 1013.3 hPa | 0 mm | - | 99 W/m² | - |
| 1777560188 | 7.22° C | 83% | 1013.2 hPa | 0 mm | - | 88 W/m² | - |
| 1777559885 | 7.22° C | 83% | 1013 hPa | 0 mm | - | 80 W/m² | - |
| 1777559585 | 7.22° C | 83% | 1013.3 hPa | 0 mm | - | 74 W/m² | - |
| 1777559283 | 7.22° C | 81% | 1013.2 hPa | 0 mm | - | 61 W/m² | - |
* Rain latest hour (hover to see other rain measurements)
** Current wind speed in m/s (hover to see current wind gust speed)